Regional Weather Roundup
Issued by NWS

Home | Current Version | Previous Version | Text Only | Print | Product List | Glossary Off
Versions: 1 2 3 4 5 6 7 8 9 10 11 12 13 14 15 16 17 18 19 20 21 22 23 24 25 26 27 28 29 30 31 32 33 34 35 36 37 38 39 40 41 42 43 44 45 46 47 48 49 50

000
ASUS45 KTFX 231010
RWRMT
MONTANA REGIONAL WEATHER ROUNDUP
NATIONAL WEATHER SERVICE GREAT FALLS MT
400 AM MDT SAT MAY 23 2015

NOTE: "FAIR" INDICATES FEW OR NO CLOUDS BELOW 12000 FEET WITH NO
SIGNIFICANT WEATHER AND/OR OBSTRUCTIONS TO VISIBILITY.

MTZ001>007-043-231100-
WEST OF THE DIVIDE

CITY           SKY/WX    TMP DP  RH WIND       PRES   REMARKS
KALISPELL      SUNNY     56  35  45 NW5       29.98R
MISSOULA       MOCLDY    50  39  66 CALM      29.98R
BUTTE          MOCLDY    40  37  89 S6        30.02R
MULLAN PASS    MOCLDY    50  31  48 VRB3      30.05R
DEER LODGE       N/A     45  39  81 CALM      30.05R
EUREKA           N/A     46  34  61 E3        30.02R
HAMILTON         N/A     46  43  87 SE3       29.97S
LIBBY            N/A     46  37  71 CALM      30.00R
RONAN            N/A     49  38  65 CALM      30.01R
$$

MTZ008-052>055-231100-
SOUTHWEST MONTANA

CITY           SKY/WX    TMP DP  RH WIND       PRES   REMARKS
BOZEMAN        MOCLDY    49  43  80 W5        29.99R
DILLON         CLOUDY    47  43  86 SE5       29.98R
W YELLOWSTONE  CLOUDY    45  39  81 E3        29.99S
THREE FORKS      N/A     51  30  44 CALM      29.97S
TWIN BRIDGES     N/A     50  40  68 N10       29.96R
$$

MTZ009-010-012-014-046-048-049-054-231100-
EAST SLOPES AND CENTRAL MONTANA

CITY           SKY/WX    TMP DP  RH WIND       PRES   REMARKS
CUT BANK       CLEAR     39  35  86 NW6       30.05R
GREAT FALLS    PTCLDY    50  43  77 E8        30.00R
MALMSTROM AFB  MOCLDY    50  47  87 N8        30.00R
HELENA         PTCLDY    52  43  71 W8        29.99R
CONRAD           N/A     42  42 100 E2        30.06R
$$

MTZ011-013-016-021-045-047-050-051-231100-
NORTH CENTRAL MONTANA

CITY           SKY/WX    TMP DP  RH WIND       PRES   REMARKS
HAVRE          CLOUDY    56  46  69 E7        30.00R
LEWISTOWN      CLOUDY    49  46  90 SW7       30.01S
N BAR RANCH    CLOUDY    46  45  93 W5        30.04R
CHINOOK          N/A     54  48  82 CALM      30.01S
FORT BENTON      N/A     55  48  76 N6        30.01R
$$

MTZ017>020-022>027-061-062-231100-
NORTHEAST MONTANA

CITY           SKY/WX    TMP DP  RH WIND       PRES   REMARKS
GLASGOW        MOCLDY    55  42  61 E12       30.03S
JORDAN           N/A     53  44  71 E6        30.01R
SIDNEY         CLEAR     46  37  71 CALM      30.09R
WOLF POINT     PTCLDY    52  41  66 E8        30.07R
MALTA            N/A     58  45  62 NE6       29.98S
PLENTYWOOD       N/A     52  36  54 E5        30.11R
$$

MTZ028>42-056>058-231100-
SOUTHCENTRAL AND SOUTHEAST MONTANA

CITY           SKY/WX    TMP DP  RH WIND       PRES   REMARKS
BAKER          CLEAR     40  37  89 E7        30.06R
BILLINGS       CLOUDY    51  45  79 N5        29.96R
LIVINGSTON     CLOUDY    50  47  89 CALM      29.98S
MILES CITY     PTCLDY    51  40  65 SE10      30.00R
BIG TIMBER       N/A     48  48 100 CALM      30.00R
FORSYTH          N/A     48  45  87 E5        29.98S
LAUREL           N/A     51  43  74 N2        29.95R
ROUNDUP          N/A     49  41  74 CALM      29.91R
$$

REGIONAL REPORTS...DAKOTAS

CITY           SKY/WX    TMP DP  RH WIND       PRES   REMARKS
WILLISTON      CLEAR     46  38  73 NE5       30.11R
MINOT          PTCLDY    55  38  52 SW10      30.10S
DICKINSON      PTCLDY    40  36  86 E7        30.09R
BEACH          CLOUDY    41  41 100 SE8       30.09R
CROSBY         FAIR      48  41  76 S12       30.12S
WATFORD CITY   FAIR      41  36  81 CALM      30.09S
BISMARCK       PTCLDY    43  40  89 SE6       30.16S
GRAND FORKS    CLEAR     48  40  73 SE8       30.13S
FARGO          CLEAR     52  45  77 S7        30.16R
BUFFALO SD       N/A     44  40  85 E12       29.99S
RAPID CITY     CLOUDY    48  44  86 S9        30.06S
$$

REGIONAL REPORTS...WYOMING/IDAHO/WASHINGTON

CITY           SKY/WX    TMP DP  RH WIND       PRES   REMARKS
GILLETTE       CLOUDY    46  43  89 SE10      29.99F
SHERIDAN       MOCLDY    45  42  89 S7        29.95S
BUFFALO WY     CLOUDY    45  44  97 SE10      29.98S
CODY           CLOUDY    48  46  93 CALM      29.96F
YELLOWSTONE LA   N/A     36  35  96 CALM      30.03F
IDAHO FALLS    CLOUDY    50  48  93 N5        29.92S
SALMON         MOCLDY    46  43  87 S5        29.95R
BOISE          MOCLDY    55  50  83 N5        29.89R
SPOKANE        MOCLDY    57  49  74 S8        29.94R
$$

REGIONAL REPORTS...ALBERTA

CITY           SKY/WX    TMP DP  RH WIND       PRES   REMARKS
EDMONTON       CLEAR     48  30  49 N3        30.06S
CALGARY        PTCLDY    43  27  52 NE2       30.10R
LETHBRIDGE     CLEAR     43  36  75 W5        30.06R
MEDICINE HAT   CLEAR     48  36  61 NE5       30.05R
$$

REGIONAL REPORTS...SASKATCHEWAN

CITY           SKY/WX    TMP DP  RH WIND       PRES   REMARKS
SWIFT CURRENT  CLEAR     48  34  57 SE6       30.08R
REGINA         PTCLDY    48  37  66 E9        30.10R
SASKATOON      PTCLDY    46  37  71 VRB2      30.08R
$$



USA.gov is the U.S. government's official web portal to all federal, state and local government web resources and services.